| time (UTC) | temp F | wind direction | speed MPH | gust MPH | rain 1hr in | rain 24hr in | rain mn in | humidity % | barometer mb |
| 20260505222449 | 52 | 144 | 0.0 | 0.0 | 0.00 | 1.02 | 1.02 | 79 | 1011.3 |
| 20260505221944 | 52 | 151 | 0.0 | 0.0 | 0.00 | 1.02 | 1.02 | 79 | 1011.4 |
| 20260505221442 | 52 | 143 | 0.0 | 0.0 | 0.00 | 1.02 | 1.02 | 78 | 1011.3 |
| 20260505220939 | 52 | 136 | 0.0 | 0.0 | 0.00 | 1.02 | 1.02 | 81 | 1011.2 |
| 20260505220436 | 52 | 135 | 0.0 | 1.0 | 0.00 | 1.02 | 1.02 | 81 | 1011.1 |
| 20260505215933 | 51 | 141 | 0.0 | 0.0 | 0.00 | 1.02 | 1.02 | 80 | 1011.0 |
| 20260505215431 | 51 | 129 | 0.0 | 0.0 | 0.00 | 1.02 | 1.02 | 80 | 1011.4 |
| 20260505214929 | 51 | 132 | 0.0 | 0.0 | 0.00 | 1.02 | 1.02 | 80 | 1011.1 |
| 20260505214427 | 51 | 141 | 0.0 | 0.0 | 0.00 | 1.02 | 1.02 | 81 | 1011.1 |
| 20260505213923 | 51 | 135 | 0.0 | 0.0 | 0.00 | 1.02 | 1.02 | 81 | 1011.4 |
| 20260505213421 | 51 | 144 | 0.0 | 0.0 | 0.00 | 1.02 | 1.02 | 84 | 1011.4 |
| 20260505212917 | 51 | 143 | 0.0 | 1.0 | 0.00 | 1.02 | 1.02 | 84 | 1011.3 |
| 20260505212414 | 50 | 144 | 0.0 | 0.0 | 0.00 | 1.02 | 1.02 | 85 | 1011.3 |
| 20260505211910 | 50 | 124 | 0.0 | 1.0 | 0.00 | 1.02 | 1.02 | 84 | 1011.4 |
| 20260505211409 | 50 | 123 | 0.0 | 0.0 | 0.00 | 1.02 | 1.02 | 85 | 1011.2 |
| 20260505210904 | 50 | 135 | 0.0 | 1.0 | 0.00 | 1.02 | 1.02 | 85 | 1011.4 |
| 20260505210402 | 50 | 123 | 0.0 | 1.0 | 0.00 | 1.02 | 1.02 | 85 | 1011.5 |
| 20260505205858 | 50 | 125 | 0.0 | 1.0 | 0.00 | 1.02 | 1.02 | 84 | 1011.4 |
| 20260505205357 | 50 | 142 | 0.0 | 1.0 | 0.00 | 1.02 | 1.02 | 86 | 1011.5 |
| 20260505204853 | 50 | 117 | 0.0 | 1.0 | 0.00 | 1.02 | 1.02 | 87 | 1011.7 |
| 20260505204351 | 50 | 133 | 0.0 | 0.0 | 0.00 | 1.02 | 1.02 | 88 | 1011.5 |
| 20260505203848 | 50 | 128 | 0.0 | 0.0 | 0.00 | 1.02 | 1.02 | 88 | 1011.6 |
| 20260505203344 | 50 | 151 | 0.0 | 0.0 | 0.00 | 1.02 | 1.02 | 89 | 1011.5 |
| 20260505202841 | 49 | 150 | 0.0 | 0.0 | 0.00 | 1.02 | 1.02 | 88 | 1011.7 |
| 20260505202337 | 49 | 131 | 0.0 | 1.0 | 0.00 | 1.02 | 1.02 | 88 | 1011.5 |
| 20260505201834 | 49 | 126 | 0.0 | 0.0 | 0.00 | 1.02 | 1.02 | 88 | 1011.2 |
| 20260505201331 | 49 | 126 | 0.0 | 0.0 | 0.00 | 1.02 | 1.02 | 87 | 1011.2 |
| 20260505200830 | 49 | 129 | 0.0 | 0.0 | 0.00 | 1.02 | 1.02 | 87 | 1011.3 |
| 20260505200326 | 49 | 142 | 0.0 | 0.0 | 0.00 | 1.02 | 1.02 | 88 | 1011.4 |
| 20260505195822 | 49 | 142 | 0.0 | 1.0 | 0.00 | 1.02 | 1.02 | 88 | 1011.2 |
| 20260505195319 | 49 | 146 | 0.0 | 0.0 | 0.00 | 1.02 | 1.02 | 87 | 1011.3 |
| 20260505194816 | 49 | 146 | 0.0 | 1.0 | 0.00 | 1.02 | 1.02 | 86 | 1011.6 |
| 20260505194313 | 49 | 147 | 0.0 | 0.0 | 0.00 | 1.02 | 1.02 | 87 | 1011.7 |
| 20260505193808 | 49 | 154 | 0.0 | 0.0 | 0.00 | 1.02 | 1.02 | 87 | 1012.0 |
| 20260505193307 | 49 | 143 | 0.0 | 0.0 | 0.00 | 1.02 | 1.02 | 89 | 1011.6 |
| 20260505192804 | 49 | 142 | 0.0 | 0.0 | 0.00 | 1.02 | 1.02 | 88 | 1011.7 |
| 20260505192305 | 48 | 142 | 0.0 | 0.0 | 0.00 | 1.02 | 1.02 | 88 | 1011.6 |
| 20260505191800 | 48 | 137 | 0.0 | 0.0 | 0.00 | 1.02 | 1.02 | 89 | 1011.5 |
| 20260505191258 | 49 | 133 | 1.0 | 1.0 | 0.00 | 1.02 | 1.02 | 90 | 1011.5 |
| 20260505190754 | 49 | 143 | 0.0 | 0.0 | 0.00 | 1.02 | 1.02 | 90 | 1011.6 |
| 20260505190249 | 49 | 150 | 0.0 | 0.0 | 0.00 | 1.02 | 1.02 | 90 | 1011.5 |
| 20260505185746 | 48 | 152 | 0.0 | 0.0 | 0.00 | 1.02 | 1.02 | 91 | 1011.4 |
| 20260505185242 | 48 | 146 | 0.0 | 1.0 | 0.00 | 1.02 | 1.02 | 90 | 1011.5 |
| 20260505184738 | 48 | 131 | 0.0 | 0.0 | 0.00 | 1.02 | 1.02 | 90 | 1011.9 |
| 20260505184236 | 48 | 130 | 0.0 | 0.0 | 0.00 | 1.02 | 1.02 | 89 | 1011.8 |
| 20260505183732 | 48 | 120 | 0.0 | 0.0 | 0.00 | 1.02 | 1.02 | 90 | 1011.8 |
| 20260505183230 | 48 | 133 | 0.0 | 1.0 | 0.00 | 1.02 | 1.02 | 90 | 1011.7 |
| 20260505182726 | 48 | 128 | 0.0 | 1.0 | 0.00 | 1.02 | 1.02 | 90 | 1011.7 |
| 20260505182223 | 48 | 161 | 0.0 | 0.0 | 0.00 | 1.02 | 1.02 | 91 | 1011.8 |
| 20260505181720 | 48 | 145 | 0.0 | 0.0 | 0.00 | 1.02 | 1.02 | 91 | 1012.0 |
| 20260505181217 | 47 | 129 | 0.0 | 0.0 | 0.00 | 1.02 | 1.02 | 90 | 1012.2 |
| 20260505180714 | 47 | 121 | 1.0 | 1.0 | 0.00 | 1.02 | 1.02 | 90 | 1012.2 |
| 20260505180210 | 48 | 77 | 1.0 | 2.0 | 0.00 | 1.02 | 1.02 | 90 | 1012.4 |
| 20260505175706 | 48 | 82 | 1.0 | 2.0 | 0.00 | 1.02 | 1.02 | 91 | 1012.4 |
| 20260505175203 | 48 | 110 | 0.0 | 0.0 | 0.00 | 1.02 | 1.02 | 91 | 1012.6 |
| 20260505174659 | 48 | 101 | 0.0 | 0.0 | 0.05 | 1.02 | 1.02 | 91 | 1012.6 |
| 20260505174156 | 48 | 169 | 1.0 | 1.0 | 0.05 | 1.02 | 1.02 | 91 | 1012.4 |
| 20260505173653 | 48 | 113 | 2.0 | 2.0 | 0.00 | 1.01 | 1.01 | 90 | 1012.1 |
| 20260505173149 | 48 | 137 | 0.0 | 1.0 | 0.00 | 1.01 | 1.01 | 90 | 1012.2 |
| 20260505172647 | 48 | 96 | 1.0 | 2.0 | 0.00 | 1.01 | 1.01 | 91 | 1012.4 |
| 20260505172143 | 48 | 121 | 1.0 | 1.0 | 0.00 | 1.01 | 1.01 | 91 | 1012.2 |
| 20260505171637 | 48 | 134 | 0.0 | 0.0 | 0.00 | 1.01 | 1.01 | 92 | 1012.2 |
| 20260505171135 | 48 | 150 | 0.0 | 0.0 | 0.00 | 1.01 | 1.01 | 92 | 1012.0 |
| 20260505170632 | 48 | 122 | 0.0 | 1.0 | 0.07 | 1.01 | 1.01 | 93 | 1012.1 |
| 20260505170128 | 48 | 134 | 0.0 | 1.0 | 0.05 | 1.00 | 1.00 | 93 | 1011.8 |
| 20260505165623 | 48 | 132 | 0.0 | 0.0 | 0.12 | 1.00 | 1.00 | 93 | 1012.1 |
| 20260505165120 | 48 | 145 | 0.0 | 0.0 | 0.07 | 0.99 | 0.99 | 93 | 1012.0 |
| 20260505164615 | 48 | 130 | 0.0 | 0.0 | 0.05 | 0.98 | 0.98 | 92 | 1012.1 |
| 20260505164113 | 48 | 134 | 0.0 | 0.0 | 0.05 | 0.98 | 0.98 | 93 | 1012.2 |
| 20260505163612 | 48 | 133 | 0.0 | 0.0 | 0.00 | 0.97 | 0.97 | 92 | 1012.4 |
| 20260505163109 | 48 | 135 | 0.0 | 0.0 | 0.00 | 0.97 | 0.97 | 92 | 1012.8 |
| 20260505162606 | 48 | 167 | 0.0 | 0.0 | 0.07 | 0.97 | 0.97 | 92 | 1012.5 |
| 20260505162104 | 48 | 166 | 0.0 | 1.0 | 0.12 | 0.97 | 0.97 | 93 | 1012.4 |
| 20260505161600 | 48 | 137 | 0.0 | 0.0 | 0.12 | 0.96 | 0.96 | 92 | 1012.3 |
| 20260505161058 | 48 | 108 | 1.0 | 1.0 | 0.07 | 0.95 | 0.95 | 92 | 1012.5 |
| 20260505160555 | 48 | 134 | 0.0 | 0.0 | 0.05 | 0.94 | 0.94 | 92 | 1012.3 |
| 20260505153032 | 48 | 138 | 0.0 | 0.0 | 0.00 | 0.93 | 0.93 | 93 | 1012.0 |
| 20260505152529 | 48 | 137 | 0.0 | 0.0 | 0.00 | 0.93 | 0.93 | 92 | 1012.0 |
| 20260505152025 | 48 | 127 | 0.0 | 0.0 | 0.00 | 0.93 | 0.93 | 93 | 1012.1 |
| 20260505151520 | 48 | 142 | 0.0 | 0.0 | 0.00 | 0.93 | 0.93 | 93 | 1011.9 |
| 20260505151018 | 48 | 114 | 0.0 | 0.0 | 0.00 | 0.93 | 0.93 | 93 | 1011.6 |
| 20260505150514 | 48 | 125 | 0.0 | 0.0 | 0.07 | 0.93 | 0.93 | 93 | 1012.1 |
| 20260505140439 | 48 | 146 | 0.0 | 0.0 | 0.07 | 0.86 | 0.86 | 93 | 1011.8 |
| 20260505124852 | 48 | 168 | 0.0 | 0.0 | 0.07 | 0.80 | 0.80 | 89 | 1009.2 |
| 20260505124349 | 48 | 161 | 0.0 | 0.0 | 0.07 | 0.80 | 0.80 | 89 | 1009.4 |
| 20260505123845 | 48 | 133 | 0.0 | 0.0 | 0.00 | 0.79 | 0.79 | 89 | 1009.3 |
| 20260505123342 | 48 | 139 | 0.0 | 0.0 | 0.00 | 0.79 | 0.79 | 88 | 1009.5 |
| 20260505122838 | 48 | 138 | 0.0 | 0.0 | 0.00 | 0.79 | 0.79 | 88 | 1009.7 |
| 20260505122336 | 48 | 138 | 0.0 | 0.0 | 0.00 | 0.79 | 0.79 | 88 | 1009.4 |
| 20260505121832 | 48 | 151 | 0.0 | 0.0 | 0.00 | 0.79 | 0.79 | 88 | 1009.6 |
| 20260505121329 | 48 | 153 | 0.0 | 0.0 | 0.00 | 0.79 | 0.79 | 88 | 1009.1 |
| 20260505120825 | 48 | 145 | 0.0 | 0.0 | 0.07 | 0.79 | 0.79 | 87 | 1009.0 |
| 20260505120321 | 49 | 126 | 0.0 | 0.0 | 0.12 | 0.79 | 0.79 | 86 | 1009.2 |
| 20260505115820 | 49 | 160 | 0.0 | 0.0 | 0.12 | 0.78 | 0.78 | 85 | 1009.4 |
| 20260505115317 | 49 | 146 | 0.0 | 0.0 | 0.07 | 0.77 | 0.77 | 85 | 1009.3 |
| 20260505114815 | 49 | 163 | 0.0 | 0.0 | 0.00 | 0.76 | 0.76 | 86 | 1009.5 |
| 20260505114312 | 49 | 146 | 0.0 | 0.0 | 0.00 | 0.76 | 0.76 | 86 | 1008.9 |
| 20260505113808 | 49 | 151 | 0.0 | 0.0 | 0.00 | 0.76 | 0.76 | 86 | 1009.0 |
| 20260505113304 | 49 | 137 | 0.0 | 0.0 | 0.00 | 0.76 | 0.76 | 87 | 1009.1 |
| 20260505112800 | 49 | 146 | 0.0 | 0.0 | 0.00 | 0.76 | 0.76 | 87 | 1008.6 |
| 20260505112258 | 49 | 146 | 0.0 | 0.0 | 0.00 | 0.76 | 0.76 | 87 | 1008.9 |
| 20260505111758 | 49 | 136 | 0.0 | 1.0 | 0.00 | 0.76 | 0.76 | 87 | 1008.7 |
| 20260505111254 | 48 | 137 | 0.0 | 0.0 | 0.00 | 0.76 | 0.76 | 87 | 1008.7 |
| 20260505110750 | 48 | 138 | 0.0 | 0.0 | 0.00 | 0.76 | 0.76 | 88 | 1008.8 |
| 20260505110248 | 49 | 137 | 0.0 | 0.0 | 0.00 | 0.76 | 0.76 | 88 | 1008.9 |
| 20260505101722 | 49 | 138 | 0.0 | 1.0 | 0.00 | 0.76 | 0.76 | 86 | 1008.9 |
| 20260505101218 | 49 | 152 | 0.0 | 0.0 | 0.00 | 0.76 | 0.76 | 86 | 1008.7 |
| 20260505100715 | 49 | 136 | 0.0 | 1.0 | 0.00 | 0.76 | 0.76 | 87 | 1008.7 |
| 20260505100211 | 49 | 130 | 0.0 | 1.0 | 0.00 | 0.76 | 0.76 | 87 | 1008.7 |
| 20260505095707 | 48 | 159 | 0.0 | 0.0 | 0.00 | 0.76 | 0.76 | 86 | 1009.0 |
| 20260505095205 | 49 | 143 | 0.0 | 0.0 | 0.00 | 0.76 | 0.76 | 86 | 1008.5 |
| 20260505094700 | 49 | 98 | 0.0 | 1.0 | 0.00 | 0.76 | 0.76 | 86 | 1008.6 |
| 20260505094157 | 49 | 138 | 0.0 | 0.0 | 0.00 | 0.76 | 0.76 | 87 | 1008.5 |
| 20260505093653 | 48 | 127 | 0.0 | 0.0 | 0.00 | 0.76 | 0.76 | 87 | 1008.6 |
| 20260505093151 | 48 | 150 | 0.0 | 0.0 | 0.00 | 0.76 | 0.76 | 87 | 1008.5 |
| 20260505092647 | 49 | 165 | 0.0 | 0.0 | 0.00 | 0.76 | 0.76 | 87 | 1008.1 |
| 20260505092146 | 49 | 164 | 0.0 | 1.0 | 0.00 | 0.76 | 0.76 | 86 | 1007.6 |
| 20260505091643 | 49 | 99 | 0.0 | 0.0 | 0.00 | 0.76 | 0.76 | 87 | 1008.0 |
| 20260505091141 | 48 | 141 | 0.0 | 0.0 | 0.00 | 0.76 | 0.76 | 87 | 1007.6 |
| 20260505090638 | 49 | 136 | 0.0 | 0.0 | 0.00 | 0.76 | 0.76 | 88 | 1007.7 |
| 20260505090137 | 48 | 72 | 1.0 | 2.0 | 0.00 | 0.76 | 0.76 | 88 | 1007.4 |
| 20260505085633 | 48 | 56 | 5.0 | 8.0 | 0.00 | 0.76 | 0.76 | 89 | 1007.2 |
| 20260505085132 | 48 | 132 | 0.0 | 1.0 | 0.05 | 0.76 | 0.76 | 89 | 1007.0 |
| 20260505084629 | 48 | 52 | 4.0 | 5.0 | 0.05 | 0.76 | 0.76 | 88 | 1006.5 |
| 20260505084127 | 48 | 96 | 3.0 | 5.0 | 0.12 | 0.75 | 0.75 | 88 | 1004.7 |
| 20260505083625 | 49 | 52 | 3.0 | 3.0 | 0.31 | 0.75 | 0.75 | 88 | 1005.1 |
| 20260505083121 | 49 | 71 | 0.0 | 1.0 | 0.31 | 0.72 | 0.72 | 88 | 1007.2 |
| 20260505082617 | 50 | 131 | 0.0 | 0.0 | 0.31 | 0.70 | 0.70 | 88 | 1008.0 |
| 20260505082114 | 50 | 132 | 0.0 | 1.0 | 0.24 | 0.67 | 0.67 | 88 | 1008.5 |
| 20260505081610 | 50 | 151 | 0.0 | 0.0 | 0.24 | 0.65 | 0.65 | 88 | 1008.7 |
| 20260505081108 | 50 | 145 | 0.0 | 0.0 | 0.24 | 0.63 | 0.63 | 88 | 1008.9 |
| 20260505080603 | 51 | 144 | 0.0 | 0.0 | 0.28 | 0.61 | 0.61 | 87 | 1009.1 |
| 20260505080100 | 51 | 145 | 0.0 | 0.0 | 0.26 | 0.58 | 0.58 | 84 | 1008.9 |
| 20260505075556 | 52 | 136 | 0.0 | 0.0 | 0.26 | 0.56 | 0.56 | 80 | 1009.2 |
| 20260505075053 | 53 | 155 | 0.0 | 0.0 | 0.24 | 0.54 | 0.54 | 75 | 1009.4 |
| 20260505074550 | 54 | 147 | 0.0 | 1.0 | 0.17 | 0.52 | 0.52 | 72 | 1009.1 |
| 20260505074047 | 55 | 105 | 1.0 | 2.0 | 0.12 | 0.50 | 0.50 | 66 | 1008.6 |
| 20260505073544 | 56 | 155 | 0.0 | 1.0 | 0.07 | 0.49 | 0.49 | 62 | 1008.4 |
| 20260505073043 | 56 | 2 | 1.0 | 3.0 | 0.00 | 0.48 | 0.48 | 61 | 1008.0 |
| 20260505072538 | 57 | 136 | 0.0 | 0.0 | 0.00 | 0.48 | 0.48 | 58 | 1007.4 |
| 20260505072035 | 57 | 128 | 0.0 | 0.0 | 0.00 | 0.48 | 0.48 | 55 | 1007.0 |
| 20260505071530 | 57 | 167 | 2.0 | 5.0 | 0.00 | 0.48 | 0.48 | 55 | 1006.7 |
| 20260505071029 | 57 | 58 | 3.0 | 3.0 | 0.00 | 0.48 | 0.48 | 57 | 1006.8 |
| 20260505070526 | 57 | 102 | 1.0 | 1.0 | 0.00 | 0.48 | 0.48 | 55 | 1007.1 |
| 20260505070022 | 57 | 116 | 1.0 | 1.0 | 0.00 | 0.48 | 0.48 | 57 | 1007.1 |
| 20260505065518 | 56 | 154 | 0.0 | 1.0 | 0.00 | 0.48 | 0.48 | 65 | 1006.5 |
| 20260505065014 | 56 | 155 | 0.0 | 1.0 | 0.00 | 0.48 | 0.48 | 65 | 1006.3 |
| 20260505064511 | 56 | 141 | 0.0 | 0.0 | 0.00 | 0.48 | 0.48 | 68 | 1006.0 |
| 20260505064010 | 56 | 89 | 2.0 | 2.0 | 0.00 | 0.48 | 0.48 | 65 | 1005.9 |
| 20260505063507 | 56 | 75 | 2.0 | 2.0 | 0.00 | 0.48 | 0.48 | 68 | 1006.2 |
| 20260505063002 | 56 | 106 | 2.0 | 2.0 | 0.00 | 0.48 | 0.48 | 71 | 1005.6 |
| 20260505062459 | 56 | 87 | 0.0 | 1.0 | 0.00 | 0.48 | 0.48 | 73 | 1005.7 |
| 20260505061956 | 56 | 124 | 1.0 | 2.0 | 0.05 | 0.48 | 0.48 | 81 | 1005.4 |
| 20260505061454 | 56 | 158 | 0.0 | 0.0 | 0.05 | 0.48 | 0.48 | 89 | 1005.1 |
| 20260505060951 | 56 | 151 | 0.0 | 0.0 | 0.00 | 0.47 | 0.47 | 89 | 1005.1 |
| 20260505060449 | 57 | 165 | 0.0 | 0.0 | 0.00 | 0.47 | 0.47 | 89 | 1005.2 |
| 20260505055945 | 57 | 162 | 0.0 | 0.0 | 0.00 | 0.47 | 0.47 | 88 | 1004.9 |
| 20260505055441 | 57 | 157 | 0.0 | 0.0 | 0.00 | 0.47 | 0.47 | 88 | 1004.7 |
| 20260505054938 | 57 | 159 | 1.0 | 1.0 | 0.19 | 0.47 | 0.47 | 89 | 1004.6 |
| 20260505054435 | 57 | 145 | 0.0 | 0.0 | 0.66 | 0.47 | 0.47 | 89 | 1004.8 |
| 20260505053933 | 58 | 140 | 0.0 | 1.0 | 1.09 | 0.43 | 0.43 | 88 | 1004.8 |
| 20260505053430 | 58 | 120 | 0.0 | 0.0 | 0.90 | 0.36 | 0.36 | 87 | 1004.7 |
| 20260505052927 | 60 | 143 | 0.0 | 0.0 | 1.02 | 0.27 | 0.27 | 83 | 1005.5 |
| 20260505052423 | 62 | 168 | 1.0 | 1.0 | 1.21 | 0.20 | 0.20 | 77 | 1004.8 |
| 20260505051921 | 67 | 118 | 1.0 | 1.0 | 0.38 | 0.06 | 0.06 | 63 | 1004.5 |
| 20260505051418 | 69 | 95 | 2.0 | 2.0 | 0.00 | 0.00 | 0.00 | 51 | 1004.3 |
| 20260505050916 | 69 | 95 | 0.0 | 1.0 | 0.00 | 0.00 | 0.00 | 48 | 1003.8 |
| 20260505050414 | 71 | 124 | 1.0 | 1.0 | 0.00 | 0.00 | 0.00 | 46 | 1003.5 |
| 20260505041341 | 72 | 140 | 1.0 | 1.0 | 0.00 | 0.00 | 0.00 | 67 | 1002.6 |
| 20260505040838 | 72 | 179 | 3.0 | 5.0 | 0.00 | 0.00 | 0.00 | 67 | 1002.3 |
| 20260505040336 | 72 | 177 | 1.0 | 1.0 | 0.00 | 0.00 | 0.00 | 67 | 1002.7 |
| 20260505035833 | 72 | 248 | 1.0 | 2.0 | 0.00 | 0.00 | 0.00 | 66 | 1002.6 |
| 20260505035328 | 72 | 203 | 2.0 | 3.0 | 0.00 | 0.00 | 0.00 | 66 | 1002.7 |
| 20260505034826 | 73 | 163 | 0.0 | 0.0 | 0.00 | 0.00 | 0.00 | 66 | 1002.6 |
| 20260505034322 | 73 | 169 | 1.0 | 1.0 | 0.00 | 0.00 | 0.00 | 65 | 1002.7 |
| 20260505033820 | 73 | 150 | 0.0 | 0.0 | 0.00 | 0.00 | 0.00 | 64 | 1002.5 |
| 20260505033316 | 73 | 162 | 0.0 | 1.0 | 0.00 | 0.00 | 0.00 | 64 | 1002.9 |
| 20260505032815 | 73 | 204 | 3.0 | 3.0 | 0.00 | 0.00 | 0.00 | 63 | 1002.6 |
| 20260505032310 | 73 | 186 | 3.0 | 3.0 | 0.00 | 0.00 | 0.00 | 63 | 1002.6 |
| 20260505031808 | 73 | 176 | 2.0 | 2.0 | 0.00 | 0.00 | 0.00 | 64 | 1002.6 |
| 20260505031304 | 73 | 168 | 0.0 | 0.0 | 0.00 | 0.00 | 0.00 | 64 | 1002.6 |
| 20260505030802 | 73 | 178 | 1.0 | 1.0 | 0.00 | 0.00 | 0.00 | 64 | 1002.6 |
| 20260505030258 | 73 | 168 | 0.0 | 1.0 | 0.00 | 0.00 | 0.00 | 63 | 1002.6 |
| 20260505025753 | 73 | 171 | 0.0 | 1.0 | 0.00 | 0.00 | 0.00 | 62 | 1002.4 |
| 20260505025251 | 73 | 182 | 2.0 | 2.0 | 0.00 | 0.00 | 0.00 | 63 | 1002.6 |
| 20260505024749 | 71 | 183 | 1.0 | 1.0 | 0.00 | 0.00 | 0.00 | 66 | 1002.3 |
| 20260505024246 | 69 | 186 | 0.0 | 0.0 | 0.00 | 0.00 | 0.00 | 71 | 1002.4 |
| 20260505023743 | 69 | 186 | 0.0 | 0.0 | 0.00 | 0.00 | 0.00 | 72 | 1002.3 |
| 20260505023240 | 69 | 186 | 0.0 | 0.0 | 0.00 | 0.00 | 0.00 | 72 | 1002.0 |
| 20260505022738 | 69 | 186 | 0.0 | 0.0 | 0.00 | 0.00 | 0.00 | 71 | 1002.1 |
| 20260505022235 | 69 | 186 | 0.0 | 0.0 | 0.00 | 0.00 | 0.00 | 71 | 1001.8 |
| 20260505021731 | 70 | 186 | 0.0 | 0.0 | 0.00 | 0.00 | 0.00 | 70 | 1001.9 |
| 20260505021228 | 70 | 186 | 0.0 | 0.0 | 0.00 | 0.00 | 0.00 | 69 | 1001.9 |
| 20260505020724 | 71 | 185 | 0.0 | 0.0 | 0.00 | 0.00 | 0.00 | 68 | 1001.8 |
| 20260505020219 | 70 | 186 | 1.0 | 1.0 | 0.00 | 0.00 | 0.00 | 68 | 1001.7 |
| 20260505015717 | 70 | 186 | 0.0 | 1.0 | 0.00 | 0.00 | 0.00 | 68 | 1001.7 |
| 20260505015214 | 70 | 186 | 0.0 | 0.0 | 0.00 | 0.00 | 0.00 | 68 | 1001.5 |
| 20260505014711 | 71 | 185 | 0.0 | 0.0 | 0.00 | 0.00 | 0.00 | 67 | 1001.3 |
| 20260505014208 | 71 | 186 | 1.0 | 1.0 | 0.00 | 0.00 | 0.00 | 67 | 1001.3 |
| 20260505013705 | 71 | 185 | 0.0 | 0.0 | 0.00 | 0.00 | 0.00 | 66 | 1001.1 |
| 20260505013202 | 72 | 185 | 0.0 | 0.0 | 0.00 | 0.00 | 0.00 | 65 | 1001.2 |
| 20260505012700 | 72 | 186 | 0.0 | 0.0 | 0.00 | 0.00 | 0.00 | 64 | 1001.1 |
| 20260505012157 | 73 | 185 | 1.0 | 2.0 | 0.00 | 0.00 | 0.00 | 63 | 1001.0 |
| 20260505011653 | 73 | 184 | 0.0 | 0.0 | 0.00 | 0.00 | 0.00 | 62 | 1001.1 |
| 20260505011150 | 74 | 169 | 0.0 | 1.0 | 0.00 | 0.00 | 0.00 | 61 | 1000.9 |
| 20260505010645 | 74 | 174 | 1.0 | 1.0 | 0.00 | 0.00 | 0.00 | 61 | 1001.0 |
| 20260505010143 | 75 | 173 | 1.0 | 1.0 | 0.00 | 0.00 | 0.00 | 60 | 1000.8 |
| 20260505005638 | 75 | 176 | 1.0 | 1.0 | 0.00 | 0.00 | 0.00 | 59 | 1000.8 |
| 20260505005135 | 77 | 182 | 1.0 | 1.0 | 0.00 | 0.00 | 0.00 | 58 | 1000.7 |
| 20260505004632 | 77 | 171 | 0.0 | 0.0 | 0.00 | 0.00 | 0.00 | 56 | 1000.5 |
| 20260505004129 | 78 | 178 | 1.0 | 1.0 | 0.00 | 0.00 | 0.00 | 54 | 1000.6 |
| 20260505003626 | 79 | 167 | 0.0 | 1.0 | 0.00 | 0.00 | 0.00 | 50 | 1000.4 |
| 20260505003124 | 79 | 166 | 0.0 | 0.0 | 0.00 | 0.00 | 0.00 | 49 | 1000.4 |
| 20260505002620 | 79 | 182 | 1.0 | 1.0 | 0.00 | 0.00 | 0.00 | 48 | 1000.5 |
| 20260505002118 | 80 | 211 | 2.0 | 2.0 | 0.00 | 0.00 | 0.00 | 48 | 1000.6 |
| 20260505001615 | 80 | 204 | 1.0 | 2.0 | 0.00 | 0.00 | 0.00 | 47 | 1000.4 |
| 20260505001113 | 80 | 206 | 2.0 | 2.0 | 0.00 | 0.00 | 0.00 | 47 | 1000.5 |
| 20260505000609 | 80 | 152 | 0.0 | 0.0 | 0.00 | 0.00 | 0.00 | 46 | 1000.7 |
| 20260505000108 | 80 | 215 | 1.0 | 1.0 | 0.00 | 0.00 | 0.00 | 46 | 1000.6 |
| 20260504235604 | 81 | 214 | 0.0 | 1.0 | 0.00 | 0.00 | 0.00 | 45 | 1000.5 |
| 20260504235100 | 81 | 202 | 2.0 | 2.0 | 0.00 | 0.00 | 0.00 | 44 | 1000.4 |
| 20260504234557 | 81 | 176 | 0.0 | 1.0 | 0.00 | 0.00 | 0.00 | 45 | 1000.2 |
| 20260504234054 | 81 | 179 | 1.0 | 2.0 | 0.00 | 0.00 | 0.00 | 44 | 1000.5 |
| 20260504233549 | 82 | 224 | 3.0 | 3.0 | 0.00 | 0.00 | 0.00 | 44 | 1000.6 |
| 20260504233046 | 83 | 209 | 7.0 | 8.0 | 0.00 | 0.00 | 0.00 | 42 | 1000.5 |
| 20260504232543 | 84 | 215 | 1.0 | 1.0 | 0.00 | 0.00 | 0.00 | 41 | 1000.5 |
| 20260504232041 | 83 | 168 | 1.0 | 1.0 | 0.00 | 0.00 | 0.00 | 42 | 1000.4 |
| 20260504231538 | 83 | 186 | 2.0 | 3.0 | 0.00 | 0.00 | 0.00 | 42 | 1000.6 |
| 20260504231034 | 83 | 115 | 0.0 | 1.0 | 0.00 | 0.00 | 0.00 | 42 | 1000.6 |
| 20260504230530 | 84 | 195 | 2.0 | 2.0 | 0.00 | 0.00 | 0.00 | 40 | 1000.7 |
| 20260504230029 | 84 | 196 | 1.0 | 1.0 | 0.00 | 0.00 | 0.00 | 40 | 1000.6 |
| 20260504225526 | 83 | 175 | 1.0 | 1.0 | 0.00 | 0.00 | 0.00 | 41 | 1000.7 |
| 20260504225023 | 83 | 185 | 1.0 | 1.0 | 0.00 | 0.00 | 0.00 | 40 | 1000.6 |
| 20260504224519 | 82 | 263 | 2.0 | 3.0 | 0.00 | 0.00 | 0.00 | 41 | 1000.8 |
| 20260504224017 | 81 | 269 | 0.0 | 1.0 | 0.00 | 0.00 | 0.00 | 42 | 1000.7 |
| 20260504223513 | 81 | 208 | 3.0 | 3.0 | 0.00 | 0.00 | 0.00 | 41 | 1000.8 |
| 20260504223009 | 82 | 200 | 3.0 | 3.0 | 0.00 | 0.00 | 0.00 | 41 | 1000.8 |